TimeCST,TemperatureF,Dew PointF,Humidity,Sea Level PressureIn,VisibilityMPH,Wind Direction,Wind SpeedMPH,Gust SpeedMPH,PrecipitationIn,Events,Conditions,WindDirDegrees,DateUTC
12:15 AM,19.4,10.4,68,30.09,10.0,NNW,4.6,-,N/A,,Clear,330,2013-02-28 06:15:00
12:36 AM,19.4,8.6,63,30.09,10.0,NW,5.8,-,N/A,,Clear,310,2013-02-28 06:36:00
1:15 AM,17.6,8.6,68,30.10,10.0,NNW,3.5,-,N/A,,Scattered Clouds,340,2013-02-28 07:15:00
1:36 AM,19.4,10.4,68,30.10,10.0,NW,4.6,-,N/A,,Mostly Cloudy,320,2013-02-28 07:36:00
1:55 AM,21.2,10.4,63,30.10,10.0,NNW,4.6,-,N/A,,Overcast,340,2013-02-28 07:55:00
2:15 AM,21.2,12.2,68,30.11,10.0,Calm,Calm,-,N/A,,Overcast,0,2013-02-28 08:15:00
2:36 AM,23.0,12.2,63,30.11,10.0,Calm,Calm,-,N/A,,Overcast,0,2013-02-28 08:36:00
2:55 AM,26.6,15.8,64,30.11,10.0,NNE,5.8,-,N/A,,Overcast,20,2013-02-28 08:55:00
3:15 AM,26.6,15.8,64,30.12,10.0,NNE,5.8,-,N/A,,Overcast,20,2013-02-28 09:15:00
3:36 AM,24.8,15.8,69,30.12,10.0,WNW,3.5,-,N/A,,Overcast,290,2013-02-28 09:36:00
3:55 AM,26.6,15.8,64,30.12,10.0,NNW,4.6,-,N/A,,Overcast,330,2013-02-28 09:55:00
4:15 AM,24.8,15.8,69,30.12,7.0,NW,3.5,-,N/A,,Overcast,310,2013-02-28 10:15:00
4:36 AM,24.8,15.8,69,30.13,7.0,WNW,3.5,-,N/A,,Overcast,290,2013-02-28 10:36:00
4:55 AM,24.8,15.8,69,30.13,7.0,NW,4.6,-,N/A,,Overcast,310,2013-02-28 10:55:00
5:15 AM,26.6,15.8,64,30.14,10.0,NW,5.8,-,N/A,,Overcast,310,2013-02-28 11:15:00
5:36 AM,26.6,17.6,69,30.14,10.0,NW,6.9,-,N/A,,Overcast,310,2013-02-28 11:36:00
5:55 AM,26.6,17.6,69,30.14,10.0,NW,6.9,-,N/A,,Overcast,320,2013-02-28 11:55:00
6:15 AM,28.4,17.6,64,30.15,10.0,NNW,8.1,-,N/A,,Overcast,330,2013-02-28 12:15:00
6:36 AM,28.4,17.6,64,30.15,10.0,NNW,4.6,-,N/A,,Overcast,330,2013-02-28 12:36:00
6:55 AM,28.4,17.6,64,30.15,10.0,NW,6.9,-,N/A,,Overcast,320,2013-02-28 12:55:00
7:15 AM,28.4,17.6,64,30.15,10.0,NNW,4.6,-,N/A,,Overcast,340,2013-02-28 13:15:00
7:36 AM,28.4,17.6,64,30.16,10.0,North,8.1,-,N/A,,Overcast,350,2013-02-28 13:36:00
7:55 AM,28.4,17.6,64,30.16,10.0,NNW,8.1,-,N/A,,Overcast,340,2013-02-28 13:55:00
8:15 AM,28.4,17.6,64,30.17,10.0,NNW,6.9,-,N/A,,Overcast,330,2013-02-28 14:15:00
8:34 AM,30.2,17.6,60,30.17,10.0,NNW,9.2,-,N/A,,Overcast,340,2013-02-28 14:34:00
8:55 AM,30.2,19.4,64,30.17,10.0,NNW,9.2,-,N/A,,Overcast,330,2013-02-28 14:55:00
9:15 AM,30.2,19.4,64,30.17,10.0,NNW,8.1,-,N/A,,Overcast,330,2013-02-28 15:15:00
9:35 AM,30.2,19.4,64,30.18,10.0,NNW,6.9,-,N/A,,Overcast,330,2013-02-28 15:35:00
9:55 AM,30.2,19.4,64,30.18,10.0,NNW,6.9,-,N/A,,Overcast,330,2013-02-28 15:55:00
10:15 AM,30.2,19.4,64,30.19,10.0,NNW,5.8,-,N/A,,Overcast,330,2013-02-28 16:15:00
10:35 AM,30.2,19.4,64,30.19,10.0,North,8.1,-,N/A,,Overcast,350,2013-02-28 16:35:00
10:55 AM,32.0,19.4,60,30.19,10.0,North,6.9,-,N/A,,Overcast,350,2013-02-28 16:55:00
11:15 AM,32.0,17.6,55,30.19,10.0,North,6.9,-,N/A,,Overcast,360,2013-02-28 17:15:00
11:35 AM,32.0,17.6,55,30.20,10.0,North,8.1,-,N/A,,Overcast,360,2013-02-28 17:35:00
11:55 AM,32.0,17.6,55,30.20,10.0,North,6.9,-,N/A,,Overcast,360,2013-02-28 17:55:00
12:15 PM,32.0,17.6,55,30.20,10.0,North,8.1,-,N/A,,Overcast,360,2013-02-28 18:15:00
12:35 PM,32.0,17.6,55,30.19,10.0,North,8.1,-,N/A,,Overcast,360,2013-02-28 18:35:00
12:55 PM,32.0,17.6,55,30.19,10.0,North,8.1,-,N/A,,Overcast,350,2013-02-28 18:55:00
1:15 PM,32.0,17.6,55,30.19,10.0,North,6.9,-,N/A,,Overcast,350,2013-02-28 19:15:00
1:35 PM,32.0,17.6,55,30.19,10.0,North,6.9,-,N/A,,Overcast,10,2013-02-28 19:35:00
1:55 PM,32.0,17.6,55,30.19,10.0,North,9.2,-,N/A,,Overcast,350,2013-02-28 19:55:00
2:15 PM,32.0,17.6,55,30.19,10.0,North,8.1,-,N/A,,Overcast,350,2013-02-28 20:15:00
2:35 PM,32.0,17.6,55,30.19,10.0,North,5.8,-,N/A,,Overcast,360,2013-02-28 20:35:00
2:55 PM,32.0,17.6,55,30.19,10.0,North,5.8,-,N/A,,Overcast,360,2013-02-28 20:55:00
3:15 PM,32.0,15.8,51,30.19,10.0,NNE,9.2,-,N/A,,Overcast,20,2013-02-28 21:15:00
3:35 PM,32.0,15.8,51,30.19,10.0,NNE,6.9,-,N/A,,Overcast,20,2013-02-28 21:35:00
3:55 PM,32.0,15.8,51,30.19,10.0,NNE,9.2,-,N/A,,Overcast,20,2013-02-28 21:55:00
4:15 PM,32.0,15.8,51,30.20,10.0,North,8.1,-,N/A,,Overcast,360,2013-02-28 22:15:00
4:35 PM,32.0,15.8,51,30.20,10.0,North,6.9,-,N/A,,Overcast,360,2013-02-28 22:35:00
4:55 PM,32.0,15.8,51,30.20,10.0,North,5.8,-,N/A,,Overcast,360,2013-02-28 22:55:00
5:15 PM,32.0,15.8,51,30.20,10.0,North,5.8,-,N/A,,Overcast,350,2013-02-28 23:15:00
5:55 PM,32.0,17.6,55,30.21,10.0,North,6.9,-,N/A,,Overcast,360,2013-02-28 23:55:00
6:15 PM,32.0,15.8,51,30.22,10.0,NE,10.4,-,N/A,,Overcast,40,2013-03-01 00:15:00
6:35 PM,30.2,17.6,60,30.22,10.0,NNE,9.2,-,N/A,,Overcast,30,2013-03-01 00:35:00
7:15 PM,30.2,15.8,55,30.23,10.0,North,5.8,-,N/A,,Overcast,10,2013-03-01 01:15:00
7:35 PM,30.2,15.8,55,30.23,10.0,North,6.9,-,N/A,,Overcast,10,2013-03-01 01:35:00
7:55 PM,30.2,15.8,55,30.23,10.0,North,9.2,-,N/A,,Overcast,360,2013-03-01 01:55:00
8:16 PM,28.4,12.2,51,30.23,10.0,North,6.9,-,N/A,,Scattered Clouds,360,2013-03-01 02:16:00
8:35 PM,26.6,12.2,55,30.23,10.0,North,5.8,-,N/A,,Clear,350,2013-03-01 02:35:00
8:55 PM,24.8,10.4,54,30.23,10.0,NNW,5.8,-,N/A,,Clear,340,2013-03-01 02:55:00
9:16 PM,24.8,10.4,54,30.24,10.0,NNW,6.9,-,N/A,,Clear,330,2013-03-01 03:16:00
9:35 PM,23.0,10.4,59,30.24,10.0,NNW,5.8,-,N/A,,Clear,340,2013-03-01 03:35:00
9:55 PM,24.8,12.2,59,30.24,10.0,North,5.8,-,N/A,,Clear,360,2013-03-01 03:55:00
10:16 PM,21.2,8.6,58,30.24,10.0,North,6.9,-,N/A,,Clear,350,2013-03-01 04:16:00
10:55 PM,21.2,10.4,63,30.24,10.0,North,6.9,-,N/A,,Clear,360,2013-03-01 04:55:00
11:35 PM,21.2,10.4,63,30.24,10.0,North,8.1,-,N/A,,Clear,360,2013-03-01 05:35:00